This is the latest recevied weather packets stored in our database for station/object IZ6EGX-13. If no packets are shown the sender has not sent any weather packets the latest 10 day(s).
| Time | Temp. | Humidity | Pressure | Rain* | Wind** | Luminosity | Snow |
|---|---|---|---|---|---|---|---|
| 1777891588 | 20.56° C | 60% | 1018.2 hPa | 0 mm | - | - | - |
| 1777890987 | 21.11° C | 59% | 1018.2 hPa | 0 mm | - | - | - |
| 1777890387 | 21.11° C | 55% | 1018.2 hPa | 0 mm | - | - | - |
| 1777889787 | 21.67° C | 54% | 1018.3 hPa | 0 mm | - | - | - |
| 1777889187 | 21.67° C | 52% | 1018.4 hPa | 0 mm | - | - | - |
| 1777888588 | 21.11° C | 49% | 1018.5 hPa | 0 mm | - | - | - |
| 1777887987 | 21.67° C | 53% | 1018.5 hPa | 0 mm | - | - | - |
| 1777887387 | 21.11° C | 52% | 1018.5 hPa | 0 mm | - | - | - |
| 1777886787 | 21.11° C | 49% | 1018.6 hPa | 0 mm | - | - | - |
| 1777886187 | 21.11° C | 50% | 1018.6 hPa | 0 mm | - | - | - |
| 1777885587 | 20.56° C | 52% | 1018.7 hPa | 0 mm | - | - | - |
| 1777884988 | 20° C | 53% | 1018.7 hPa | 0 mm | - | - | - |
| 1777884387 | 20° C | 53% | 1018.7 hPa | 0 mm | - | - | - |
| 1777883787 | 20° C | 54% | 1018.6 hPa | 0 mm | - | - | - |
| 1777883187 | 20.56° C | 55% | 1018.6 hPa | 0 mm | - | - | - |
| 1777882587 | 20.56° C | 54% | 1018.5 hPa | 0 mm | - | - | - |
| 1777881987 | 20.56° C | 54% | 1018.4 hPa | 0 mm | - | - | - |
| 1777881387 | 20.56° C | 53% | 1018.4 hPa | 0 mm | - | - | - |
| 1777880787 | 20.56° C | 52% | 1018.3 hPa | 0 mm | - | - | - |
| 1777880187 | 20.56° C | 52% | 1018.3 hPa | 0 mm | - | - | - |
| 1777879587 | 21.11° C | 51% | 1018.2 hPa | 0 mm | - | - | - |
| 1777878987 | 20.56° C | 51% | 1018.2 hPa | 0 mm | - | - | - |
| 1777878387 | 20° C | 52% | 1018.2 hPa | 0 mm | - | - | - |
| 1777877787 | 20° C | 52% | 1018.2 hPa | 0 mm | - | - | - |
| 1777877187 | 20° C | 53% | 1018 hPa | 0 mm | - | - | - |
* Rain latest hour (hover to see other rain measurements)
** Current wind speed in m/s (hover to see current wind gust speed)